Weather History for Monroe, MI

Change the Weather History Date:

Saturday, July 5, 2014

  Actual Average Record
Temperature  
Mean Temperature 64 °F -  
Max Temperature 78 °F 82 °F 104 °F (1990)
Min Temperature 50 °F 61 °F 48 °F (1972)
Degree Days  
Heating Degree Days 1    
Growing Degree Days 14 (Base 50)    
Moisture  
Dew Point 49 °F    
Average Humidity 59    
Maximum Humidity 94    
Minimum Humidity 30    
Precipitation  
Precipitation 0.00 in - - ()
Sea Level Pressure  
Sea Level Pressure 30.23 in    
Wind  
Wind Speed 3 mph (SW)    
Max Wind Speed 12 mph    
Max Gust Speed 20 mph    
Visibility 10 miles    
Events      
Averages and records for this station are not official NWS values.
T = Trace of Precipitation, MM = Missing Value Source: NWS Daily Summary

Daily Weather History Graph

Daily Weather History Graph

Search for Another Location

Airport:

Trip Planner

Search our weather history database for the weather conditions in past years. The results will help you decide how hot, cold, wet, or windy it might be!

Date:

Astronomy

Jul. 05, 2014 Rise Set
Actual Time 6:04 AM EDT 9:12 PM EDT
Civil Twilight 5:30 AM EDT 9:45 PM EDT
Nautical Twilight 4:46 AM EDT 10:29 PM EDT
Astronomical Twilight 3:54 AM EDT 11:21 PM EDT
Moon 2:05 PM EDT (7/5) 12:56 AM EDT (7/5)
Length of Visible Light 16h 15m
Length of Day
15h 07m
First Quarter, 52% of the Moon is Illuminated
Jul 5
First Quarter
Jul 12
Full
Jul 18
Last Quarter
Jul 26
New
Aug 3
First Quarter

Hourly Weather History & Observations

Time (EDT) Temp. Dew Point Humidity Pressure Visibility Wind Dir Wind Speed Gust Speed Precip Events Conditions
12:14 AM 55.4 °F 50.0 °F 82% 30.29 in 7.0 mi Calm Calm - N/A   Clear
12:34 AM 55.4 °F 50.0 °F 82% 30.29 in 7.0 mi Calm Calm - N/A   Clear
12:54 AM 57.2 °F 48.2 °F 72% 30.29 in 10.0 mi Calm Calm - N/A   Clear
1:14 AM 53.6 °F 48.2 °F 82% 30.28 in 10.0 mi Calm Calm - N/A   Clear
1:34 AM 53.6 °F 48.2 °F 82% 30.28 in 7.0 mi Calm Calm - N/A   Clear
1:54 AM 53.6 °F 50.0 °F 88% 30.28 in 10.0 mi Calm Calm - N/A   Clear
2:14 AM 53.6 °F 50.0 °F 88% 30.28 in 7.0 mi Calm Calm - N/A   Clear
2:34 AM 53.6 °F 48.2 °F 82% 30.28 in 10.0 mi Calm Calm - N/A   Clear
2:54 AM 53.6 °F 48.2 °F 82% 30.28 in 10.0 mi Calm Calm - N/A   Clear
3:14 AM 51.8 °F 48.2 °F 88% 30.27 in 10.0 mi Calm Calm - N/A   Clear
3:35 AM 51.8 °F 48.2 °F 88% 30.28 in 10.0 mi Calm Calm - N/A   Clear
3:50 AM 51.8 °F 48.2 °F 88% 30.27 in 10.0 mi Calm Calm - N/A   Clear
4:10 AM 51.8 °F 48.2 °F 88% 30.27 in 10.0 mi Calm Calm - N/A   Clear
4:30 AM 51.8 °F 48.2 °F 88% 30.27 in 10.0 mi Calm Calm - N/A   Clear
4:50 AM 51.8 °F 48.2 °F 88% 30.27 in 7.0 mi Calm Calm - N/A   Clear
5:10 AM 50.0 °F 48.2 °F 94% 30.27 in 5.0 mi Calm Calm - N/A   Clear
5:30 AM 51.8 °F 48.2 °F 88% 30.28 in 7.0 mi Calm Calm - N/A   Clear
5:50 AM 50.0 °F 46.4 °F 87% 30.28 in 7.0 mi Calm Calm - N/A   Clear
6:11 AM 50.0 °F 46.4 °F 87% 30.29 in 7.0 mi Calm Calm - N/A   Clear
6:31 AM 51.8 °F 48.2 °F 88% 30.29 in 10.0 mi Calm Calm - N/A   Clear
6:51 AM 53.6 °F 48.2 °F 82% 30.29 in 10.0 mi Calm Calm - N/A   Clear
7:11 AM 53.6 °F 50.0 °F 88% 30.29 in 7.0 mi Calm Calm - N/A   Clear
7:31 AM 57.2 °F 51.8 °F 82% 30.30 in 7.0 mi Calm Calm - N/A   Clear
7:51 AM 59.0 °F 51.8 °F 77% 30.30 in 7.0 mi Calm Calm - N/A   Clear
8:11 AM 62.6 °F 51.8 °F 68% 30.30 in 10.0 mi West 4.6 mph - N/A   Clear
8:31 AM 64.4 °F 51.8 °F 64% 30.30 in 10.0 mi WSW 5.8 mph - N/A   Clear
8:51 AM 66.2 °F 51.8 °F 60% 30.29 in 10.0 mi WSW 5.8 mph - N/A   Clear
9:11 AM 68.0 °F 51.8 °F 56% 30.29 in 10.0 mi WSW 6.9 mph - N/A   Clear
9:31 AM 69.8 °F 51.8 °F 53% 30.29 in 10.0 mi WSW 5.8 mph - N/A   Clear
9:52 AM 71.6 °F 50.0 °F 46% 30.30 in 10.0 mi WSW 8.1 mph - N/A   Clear
10:12 AM 71.6 °F 50.0 °F 46% 30.29 in 10.0 mi WSW 8.1 mph - N/A   Clear
10:32 AM 73.4 °F 50.0 °F 44% 30.29 in 10.0 mi WSW 6.9 mph - N/A   Clear
10:52 AM 73.4 °F 48.2 °F 41% 30.30 in 10.0 mi WSW 8.1 mph - N/A   Clear
11:12 AM 73.4 °F 50.0 °F 44% 30.30 in 10.0 mi West 8.1 mph - N/A   Clear
11:32 AM 75.2 °F 50.0 °F 41% 30.29 in 10.0 mi WSW 9.2 mph - N/A   Clear
11:52 AM 75.2 °F 46.4 °F 36% 30.28 in 10.0 mi SW 8.1 mph - N/A   Clear
12:12 PM 75.2 °F 46.4 °F 36% 30.28 in 10.0 mi WSW 10.4 mph - N/A   Clear
12:33 PM 77.0 °F 44.6 °F 32% 30.28 in 10.0 mi SW 11.5 mph 16.1 mph N/A   Clear
12:53 PM 78.8 °F 44.6 °F 30% 30.27 in 10.0 mi SW 9.2 mph 19.6 mph N/A   Clear
1:13 PM 78.8 °F 44.6 °F 30% 30.26 in 10.0 mi SW 11.5 mph 19.6 mph N/A   Clear
1:33 PM 78.8 °F 44.6 °F 30% 30.25 in 10.0 mi SW 5.8 mph - N/A   Clear
1:53 PM 78.8 °F 44.6 °F 30% 30.24 in 10.0 mi WSW 9.2 mph 16.1 mph N/A   Clear
2:13 PM 78.8 °F 44.6 °F 30% 30.23 in 10.0 mi SW 6.9 mph - N/A   Clear
2:33 PM 77.0 °F 44.6 °F 32% 30.22 in 10.0 mi SW 8.1 mph - N/A   Clear
2:53 PM 78.8 °F 46.4 °F 32% 30.22 in 10.0 mi WSW 11.5 mph 16.1 mph N/A   Clear
3:13 PM 78.8 °F 44.6 °F 30% 30.22 in 10.0 mi WSW 4.6 mph - N/A   Clear
3:33 PM 78.8 °F 44.6 °F 30% 30.21 in 10.0 mi SW 9.2 mph - N/A   Clear
4:13 PM 78.8 °F 46.4 °F 32% 30.20 in 10.0 mi SW 6.9 mph - N/A   Clear
4:34 PM 78.8 °F 46.4 °F 32% 30.18 in 10.0 mi SW 6.9 mph - N/A   Clear
4:54 PM 78.8 °F 46.4 °F 32% 30.18 in 10.0 mi SSW 11.5 mph - N/A   Clear
5:14 PM 78.8 °F 46.4 °F 32% 30.18 in 10.0 mi WSW 9.2 mph - N/A   Clear
5:34 PM 77.0 °F 46.4 °F 34% 30.16 in 10.0 mi SSW 6.9 mph - N/A   Clear
5:54 PM 77.0 °F 46.4 °F 34% 30.16 in 10.0 mi SW 8.1 mph - N/A   Clear
6:14 PM 75.2 °F 46.4 °F 36% 30.16 in 10.0 mi SW 9.2 mph - N/A   Clear
6:34 PM 77.0 °F 46.4 °F 34% 30.15 in 10.0 mi SSW 5.8 mph - N/A   Clear
6:54 PM 75.2 °F 48.2 °F 38% 30.15 in 10.0 mi SW 5.8 mph - N/A   Clear
7:10 PM 75.2 °F 48.2 °F 38% 30.15 in 10.0 mi SW 4.6 mph - N/A   Clear
7:30 PM 75.2 °F 50.0 °F 41% 30.15 in 10.0 mi SW 3.5 mph - N/A   Clear
7:50 PM 73.4 °F 53.6 °F 50% 30.14 in 10.0 mi SSW 3.5 mph - N/A   Clear
8:10 PM 73.4 °F 51.8 °F 47% 30.14 in 10.0 mi Calm Calm - N/A   Clear
8:30 PM 71.6 °F 55.4 °F 57% 30.13 in 10.0 mi Calm Calm - N/A   Clear
8:50 PM 69.8 °F 53.6 °F 56% 30.13 in 10.0 mi Calm Calm - N/A   Clear
9:10 PM 69.8 °F 53.6 °F 56% 30.12 in 10.0 mi Calm Calm - N/A   Clear
9:30 PM 68.0 °F 55.4 °F 64% 30.12 in 10.0 mi Calm Calm - N/A   Clear
9:50 PM 66.2 °F 55.4 °F 68% 30.12 in 10.0 mi Calm Calm - N/A   Clear
10:10 PM 64.4 °F 55.4 °F 73% 30.12 in 10.0 mi Calm Calm - N/A   Clear
10:30 PM 64.4 °F 55.4 °F 73% 30.11 in 10.0 mi Calm Calm - N/A   Clear
10:50 PM 64.4 °F 55.4 °F 73% 30.11 in 10.0 mi Calm Calm - N/A   Clear
11:11 PM 64.4 °F 53.6 °F 68% 30.10 in 10.0 mi Calm Calm - N/A   Clear
11:31 PM 64.4 °F 53.6 °F 68% 30.09 in 10.0 mi Calm Calm - N/A   Clear
11:51 PM 64.4 °F 53.6 °F 68% 30.09 in 10.0 mi Calm Calm - N/A   Clear